[[{"header":{"parameterUnit":"m.s-1","parameterCategory":2,"la1":30.2992,"la2":30.254,"lo1":-89.0895,"lo2":-89.0443,"dy":0.0025,"dx":0.0025,"nx":19,"ny":19,"refTime":"2026-04-05T09:00:00:Z","depth":"0","parameterNumber":2,"parameterNumberName":"U-component_of_CURRENTS"},"data":[0,0,0,0.1383,0.1384,0.1388,0.1388,0.1474,0.1475,0,0,0,0,0,0,0,0,0,0,0,0.1382,0.1382,0.1383,0.1384,0.1388,0.1388,0.1474,0.1475,0,0,0,0,0,0,0,0,0,0,0,0.1382,0.1382,0.1382,0.1384,0.1388,0.1388,0.1474,0.145,0,0,0,0,0,0,0,0,0,0,0.1435,0.1421,0.1382,0.1382,0.1384,0.1388,0.1388,0.1448,0.1452,0.1495,0,0.1494,0,0.149,0.1483,0.1483,0,0,0,0.1383,0.1417,0.1422,0.1382,0.1384,0.1388,0.1386,0.1449,0.1454,0.15,0.1495,0.1498,0.1491,0.1483,0.1484,0.1593,0.1593,0,0,0.1383,0.1383,0.1418,0.1424,0.1386,0.1386,0.1386,0.1451,0.1456,0.1495,0.1499,0.1492,0.1484,0.1485,0.1592,0.1593,0,0,0,0.1382,0.1383,0.1383,0.1421,0.1417,0.1386,0.1386,0.1453,0.1454,0.15,0.1493,0.1485,0.1486,0.1592,0.1593,0.1579,0,0,0,0.1382,0.1383,0.1383,0.1384,0.1415,0.1424,0.1387,0.1449,0.1456,0.1493,0.1485,0.1487,0.1592,0.1592,0.1578,0.1583,0,0,0,0.1381,0.1383,0.1383,0.1384,0.1386,0.1422,0.1426,0.145,0.1453,0.1483,0.1488,0.1591,0.1592,0.1578,0.1582,0.1607,0,0,0,0.1381,0.1381,0.1383,0.1385,0.1386,0.1404,0.1425,0.1449,0.1473,0.1485,0.1592,0.1593,0.1578,0.1582,0.1606,0.157,0.1571,0,0,0.138,0.1381,0.1382,0.1384,0.1393,0.1404,0.143,0.1472,0.1503,0.1575,0.1577,0.1578,0.1582,0.1607,0.1617,0.1616,0,0,0,0.1381,0.138,0.1385,0.1389,0.1405,0.1428,0.146,0.1489,0.1547,0.1521,0.1599,0.1603,0.1618,0.1595,0.1595,0.1545,0.1596,0.1596,0.1596,0.1373,0.1378,0.138,0.1392,0.1412,0.1453,0.1485,0.1536,0.1559,0.1589,0.1606,0.1637,0.1612,0.1612,0.156,0.1618,0.1618,0.1618,0.1618,0.1359,0.1352,0.1372,0.1374,0.1409,0.1439,0.152,0.1546,0.1621,0.1624,0.1639,0.16,0.161,0.1556,0.1617,0.1617,0.1617,0.1617,0.1617,0.1337,0.1335,0.1337,0.1348,0.1381,0.1434,0.1495,0.1562,0.1617,0.1641,0.1633,0.1632,0.1573,0.1649,0.1649,0.165,0.165,0.165,0.165,0.1309,0.1313,0.1307,0.1327,0.1339,0.1389,0.1492,0.1543,0.1606,0.1632,0.1632,0.158,0.1647,0.1633,0.1652,0.1652,0.1651,0.1651,0.1651,0.1278,0.1283,0.1271,0.1275,0.1303,0.1319,0.1428,0.1509,0.1577,0.159,0.1561,0.1633,0.164,0.164,0.1626,0.1643,0.1643,0.1643,0.1643,0.1257,0.126,0.1233,0.1228,0.1246,0.1286,0.1309,0.1395,0.1481,0.1501,0.1529,0.1493,0.1495,0.1492,0.1496,0.1479,0.1458,0.1457,0.1457,0.124,0.1235,0.1204,0.1195,0.1208,0.1228,0.1212,0.1238,0.1365,0.1446,0.1468,0.1475,0.1418,0.1426,0.1419,0.1428,0.14,0,0]},{"header":{"parameterUnit":"m.s-1","parameterCategory":2,"la1":30.2992,"la2":30.254,"lo1":-89.0895,"lo2":-89.0443,"dy":0.0025,"dx":0.0025,"nx":19,"ny":19,"refTime":"2026-04-05T09:00:00:Z","depth":"0","parameterNumber":3,"parameterNumberName":"V-component_of_CURRENTS"},"data":[0,0,0,0.0263,0.0263,0.0266,0.0266,0.0267,0.0267,0,0,0,0,0,0,0,0,0,0,0,0.0264,0.0264,0.0263,0.0263,0.0266,0.0266,0.0267,0.0267,0,0,0,0,0,0,0,0,0,0,0,0.0264,0.0264,0.0264,0.0263,0.0266,0.0266,0.0267,0.0265,0,0,0,0,0,0,0,0,0,0,0.0263,0.0261,0.0264,0.0264,0.0263,0.0266,0.0266,0.0265,0.0265,0.0266,0,0.0269,0,0.0268,0.0267,0.0267,0,0,0,0.0262,0.0261,0.0265,0.0264,0.0263,0.0266,0.0264,0.0265,0.0266,0.0266,0.0269,0.0269,0.0268,0.0267,0.0267,0.0295,0.0296,0,0,0.0262,0.0261,0.0265,0.0265,0.0267,0.0264,0.0264,0.0266,0.0265,0.0269,0.0269,0.0268,0.0267,0.0267,0.0295,0.0295,0,0,0,0.0262,0.026,0.0264,0.0265,0.0266,0.0264,0.0265,0.0265,0.0267,0.0269,0.0268,0.0267,0.0267,0.0295,0.0295,0.0349,0,0,0,0.0262,0.0261,0.0264,0.0263,0.0266,0.0265,0.0264,0.0267,0.0267,0.0268,0.0267,0.0267,0.0294,0.0295,0.0346,0.0378,0,0,0,0.0263,0.0261,0.0263,0.0263,0.0265,0.0265,0.0267,0.0267,0.0267,0.0267,0.0267,0.0294,0.0295,0.0345,0.0374,0.0404,0,0,0,0.0259,0.0272,0.0263,0.0279,0.0265,0.0287,0.0267,0.0279,0.0282,0.0267,0.0294,0.0295,0.0344,0.0372,0.0402,0.0467,0.0482,0,0,0.0275,0.0273,0.0285,0.0277,0.0307,0.0287,0.0318,0.031,0.0292,0.0293,0.0293,0.0347,0.0374,0.0404,0.0506,0.0521,0,0,0,0.0291,0.03,0.0308,0.0321,0.033,0.0347,0.0336,0.0336,0.0343,0.0297,0.0346,0.0361,0.0378,0.0412,0.0424,0.0421,0.0298,0.0298,0.0298,0.0308,0.032,0.0347,0.0365,0.038,0.0389,0.0406,0.0404,0.0377,0.039,0.0404,0.0463,0.05,0.0509,0.0505,0.0398,0.0398,0.0398,0.0399,0.0345,0.0367,0.0383,0.0413,0.0431,0.0456,0.0477,0.047,0.0495,0.0457,0.0471,0.0466,0.0526,0.0516,0.0402,0.0401,0.0401,0.0401,0.04,0.0364,0.0378,0.0394,0.0443,0.0487,0.0507,0.0576,0.0569,0.0548,0.0569,0.0589,0.0589,0.0581,0.0568,0.0568,0.0568,0.0568,0.0569,0.0569,0.0378,0.0398,0.0436,0.0482,0.0523,0.0585,0.0639,0.0671,0.0683,0.0661,0.0661,0.061,0.0514,0.0508,0.0573,0.0572,0.0572,0.0571,0.0571,0.0413,0.0417,0.0478,0.0519,0.062,0.0713,0.0755,0.083,0.0834,0.0846,0.0768,0.0708,0.0697,0.0688,0.0686,0.0793,0.0793,0.0793,0.0793,0.0434,0.0441,0.0526,0.0603,0.07,0.0778,0.0919,0.0972,0.0936,0.091,0.0857,0.0831,0.0822,0.0816,0.0804,0.0802,0.0936,0.0936,0.0936,0.0466,0.0486,0.0553,0.0625,0.0739,0.0857,0.0994,0.109,0.1026,0.0937,0.0841,0.0835,0.0789,0.0775,0.0753,0.0736,0.0728,0,0]}],[{"header":{"parameterUnit":"m.s-1","parameterCategory":2,"la1":30.2992,"la2":30.254,"lo1":-89.0895,"lo2":-89.0443,"dy":0.0025,"dx":0.0025,"nx":19,"ny":19,"refTime":"2026-04-05T09:00:00:Z","depth":"2","parameterNumber":2,"parameterNumberName":"U-component_of_CURRENTS"},"data":[0,0,0,0.1283,0.1283,0.1294,0.1294,0.1364,0.1365,0,0,0,0,0,0,0,0,0,0,0,0.128,0.128,0.1283,0.1283,0.1294,0.1294,0.1364,0.1365,0,0,0,0,0,0,0,0,0,0,0,0.128,0.128,0.128,0.1284,0.1294,0.1294,0.1363,0.1341,0,0,0,0,0,0,0,0,0,0,0.1324,0.1311,0.128,0.128,0.1284,0.1294,0.1294,0.1339,0.1343,0.1375,0,0.1377,0,0.1375,0.1371,0.1371,0,0,0,0.1282,0.1308,0.1314,0.128,0.1284,0.1294,0.1289,0.1341,0.1344,0.138,0.1378,0.138,0.1376,0.1371,0.1372,0.1468,0.1468,0,0,0.1281,0.1281,0.1311,0.1316,0.1289,0.1289,0.1289,0.1342,0.1347,0.1378,0.1382,0.1377,0.1372,0.1373,0.1468,0.1468,0,0,0,0.1281,0.1281,0.1284,0.1314,0.1313,0.1289,0.129,0.1345,0.1346,0.1382,0.1378,0.1372,0.1373,0.1467,0.1468,0.1455,0,0,0,0.128,0.1281,0.1283,0.1283,0.1311,0.1321,0.1291,0.1342,0.1348,0.1378,0.1372,0.1374,0.1467,0.1467,0.1455,0.146,0,0,0,0.1279,0.128,0.1282,0.1283,0.1289,0.132,0.1324,0.1343,0.1346,0.1371,0.1375,0.1466,0.1467,0.1454,0.1459,0.1481,0,0,0,0.1277,0.1279,0.1282,0.1286,0.1289,0.1307,0.1323,0.1345,0.1366,0.1373,0.1467,0.1468,0.1454,0.1458,0.148,0.1434,0.1434,0,0,0.1278,0.1279,0.1282,0.1285,0.1295,0.1305,0.1329,0.1364,0.1393,0.1452,0.1454,0.1455,0.1459,0.1481,0.1486,0.1484,0,0,0,0.128,0.1281,0.1286,0.1292,0.1307,0.1327,0.1355,0.138,0.1432,0.141,0.1477,0.148,0.1494,0.1465,0.1464,0.1472,0.1472,0.1472,0.1472,0.1274,0.1279,0.1282,0.1294,0.1313,0.135,0.1378,0.1423,0.1443,0.1472,0.1486,0.1517,0.1486,0.1485,0.1499,0.1499,0.1499,0.1499,0.1499,0.1262,0.1257,0.1276,0.128,0.1311,0.1339,0.1409,0.1433,0.1501,0.1504,0.1518,0.1473,0.1483,0.1498,0.1498,0.1498,0.1498,0.1498,0.1498,0.1243,0.1241,0.1246,0.1259,0.129,0.1337,0.1391,0.1451,0.15,0.1521,0.1506,0.1506,0.1508,0.153,0.1531,0.1531,0.1531,0.1531,0.1531,0.1216,0.1222,0.122,0.1241,0.1254,0.13,0.1392,0.1435,0.1485,0.1506,0.1506,0.1529,0.1527,0.1512,0.1533,0.1532,0.1532,0.1532,0.1532,0.1187,0.1194,0.1188,0.1193,0.1221,0.123,0.1328,0.1391,0.1452,0.1458,0.15,0.15,0.1505,0.1506,0.149,0.1505,0.1505,0.1505,0.1505,0.1168,0.1172,0.1153,0.1149,0.1164,0.1195,0.1199,0.1249,0.1345,0.1379,0.1384,0.1348,0.1352,0.1347,0.135,0.1332,0.1305,0.1304,0.1304,0.1151,0.1149,0.1123,0.1118,0.1128,0.1135,0.1095,0.1058,0.1144,0.1294,0.1333,0.1495,0.1454,0.1455,0.1458,0.146,0.1434,0,0]},{"header":{"parameterUnit":"m.s-1","parameterCategory":2,"la1":30.2992,"la2":30.254,"lo1":-89.0895,"lo2":-89.0443,"dy":0.0025,"dx":0.0025,"nx":19,"ny":19,"refTime":"2026-04-05T09:00:00:Z","depth":"2","parameterNumber":3,"parameterNumberName":"V-component_of_CURRENTS"},"data":[0,0,0,0.014,0.0141,0.0146,0.0146,0.0146,0.0146,0,0,0,0,0,0,0,0,0,0,0,0.014,0.014,0.014,0.0141,0.0146,0.0146,0.0146,0.0146,0,0,0,0,0,0,0,0,0,0,0,0.014,0.014,0.0141,0.0141,0.0146,0.0146,0.0146,0.0143,0,0,0,0,0,0,0,0,0,0,0.0139,0.0137,0.014,0.0141,0.0141,0.0146,0.0146,0.0143,0.0144,0.0142,0,0.0146,0,0.0146,0.0146,0.0146,0,0,0,0.0139,0.0137,0.0142,0.0141,0.0141,0.0146,0.0143,0.0143,0.0144,0.0143,0.0146,0.0146,0.0146,0.0146,0.0146,0.0173,0.0173,0,0,0.0139,0.0137,0.0141,0.0142,0.0146,0.0143,0.0143,0.0144,0.0144,0.0146,0.0146,0.0146,0.0146,0.0146,0.0173,0.0173,0,0,0,0.0139,0.0137,0.0142,0.0142,0.0143,0.0143,0.0143,0.0143,0.0146,0.0146,0.0146,0.0146,0.0146,0.0172,0.0173,0.0224,0,0,0,0.0139,0.0137,0.0142,0.014,0.0143,0.0143,0.0143,0.0146,0.0146,0.0146,0.0146,0.0146,0.0172,0.0173,0.0222,0.0251,0,0,0,0.0139,0.0137,0.014,0.014,0.0143,0.0144,0.0146,0.0146,0.0146,0.0146,0.0146,0.0172,0.0173,0.022,0.0247,0.0274,0,0,0,0.0135,0.0148,0.014,0.0156,0.0143,0.0165,0.0146,0.0158,0.0161,0.0146,0.0172,0.0173,0.0219,0.0245,0.0271,0.0314,0.0328,0,0,0.0151,0.0149,0.0161,0.0154,0.0183,0.0164,0.0195,0.0188,0.017,0.017,0.0171,0.0223,0.0247,0.0273,0.0355,0.0367,0,0,0,0.0166,0.0175,0.0183,0.0196,0.0205,0.0223,0.0212,0.0213,0.0219,0.0175,0.0223,0.0236,0.0251,0.0272,0.0282,0.0176,0.0176,0.0176,0.0176,0.0183,0.0195,0.0221,0.0238,0.0253,0.0263,0.028,0.0277,0.0252,0.0265,0.0278,0.0333,0.0357,0.0365,0.0274,0.0274,0.0274,0.0274,0.0274,0.0218,0.0239,0.0255,0.0284,0.0302,0.0327,0.0347,0.034,0.0363,0.0329,0.034,0.0325,0.0379,0.0278,0.0278,0.0277,0.0277,0.0276,0.0276,0.0235,0.0249,0.0266,0.0313,0.0355,0.0375,0.0437,0.0432,0.0414,0.0432,0.0439,0.0438,0.0366,0.0431,0.0432,0.0432,0.0432,0.0432,0.0433,0.0247,0.0267,0.0303,0.0348,0.0387,0.0445,0.0494,0.0521,0.0526,0.0505,0.0505,0.0386,0.0381,0.0375,0.0436,0.0436,0.0435,0.0435,0.0435,0.0275,0.0283,0.0338,0.0376,0.0469,0.055,0.059,0.0648,0.0651,0.0656,0.0544,0.054,0.0528,0.0519,0.0516,0.0611,0.0611,0.0611,0.0611,0.0291,0.0299,0.0375,0.0444,0.0531,0.0602,0.0717,0.0746,0.0708,0.0662,0.0659,0.0632,0.0624,0.0614,0.0603,0.06,0.0717,0.0717,0.0717,0.0314,0.0334,0.0391,0.0458,0.056,0.0664,0.0771,0.0808,0.0737,0.0718,0.0647,0.0624,0.0575,0.0566,0.054,0.0527,0.0518,0,0]}],[{"header":{"parameterUnit":"m.s-1","parameterCategory":2,"la1":30.2992,"la2":30.254,"lo1":-89.0895,"lo2":-89.0443,"dy":0.0025,"dx":0.0025,"nx":19,"ny":19,"refTime":"2026-04-05T09:00:00:Z","depth":"4","parameterNumber":2,"parameterNumberName":"U-component_of_CURRENTS"},"data":[0,0,0,0.0963,0.0964,0.1026,0.1026,0.1056,0.1056,0,0,0,0,0,0,0,0,0,0,0,0.0946,0.0946,0.0963,0.0964,0.1026,0.1026,0.1056,0.1056,0,0,0,0,0,0,0,0,0,0,0,0.0945,0.0946,0.0947,0.0965,0.1026,0.1026,0.1056,0.1021,0,0,0,0,0,0,0,0,0,0,0.0967,0.0963,0.0946,0.0947,0.0965,0.1026,0.1026,0.102,0.1023,0.1016,0,0.1034,0,0.1044,0.1058,0.1058,0,0,0,0.0962,0.096,0.0973,0.0947,0.0966,0.1025,0.0997,0.1022,0.1026,0.102,0.1034,0.1036,0.1045,0.1058,0.1058,0.1091,0.1092,0,0,0.0958,0.0957,0.0971,0.0976,0.0992,0.0995,0.0999,0.1025,0.1034,0.1034,0.1036,0.1045,0.1058,0.1058,0.1091,0.1092,0,0,0,0.095,0.0955,0.0969,0.0974,0.0989,0.0997,0.1002,0.1033,0.1037,0.1037,0.1046,0.1058,0.1058,0.1091,0.1091,0.1128,0,0,0,0.0948,0.095,0.0967,0.0967,0.0989,0.1019,0.1009,0.1035,0.1039,0.1046,0.1058,0.1058,0.1091,0.1091,0.1126,0.1133,0,0,0,0.0941,0.0949,0.0959,0.0967,0.0994,0.1019,0.1025,0.1037,0.1044,0.1058,0.1058,0.1091,0.1091,0.1125,0.1131,0.1148,0,0,0,0.0933,0.0947,0.0959,0.098,0.0993,0.1026,0.1025,0.1058,0.1074,0.1058,0.1091,0.1091,0.1124,0.113,0.1146,0.0996,0,0,0,0.094,0.0948,0.0958,0.0971,0.0998,0.1017,0.105,0.1075,0.1077,0.1078,0.1079,0.1127,0.1131,0.1147,0.1031,0,0,0,0,0.0953,0.0963,0.0974,0.0996,0.1021,0.1051,0.1077,0.1091,0.1119,0.1089,0.1128,0.1129,0.1139,0.1047,0.1094,0.1094,0.1094,0.1094,0.1094,0.095,0.0965,0.0983,0.1008,0.1035,0.1079,0.1107,0.113,0.1132,0.1156,0.116,0.1198,0.1104,0.1166,0.1166,0.1166,0.1167,0.1167,0.1167,0.0948,0.0952,0.0987,0.1012,0.105,0.1086,0.1136,0.1158,0.1199,0.1192,0.1199,0.1094,0.117,0.117,0.1169,0.1169,0.1168,0.1168,0.1168,0.0927,0.0931,0.0961,0.1,0.1048,0.1098,0.1138,0.1192,0.1223,0.1247,0.1147,0.122,0.1214,0.1258,0.1258,0.1258,0.1258,0.1258,0.1258,0.0887,0.0915,0.0939,0.0989,0.1019,0.1071,0.1151,0.1172,0.1222,0.1165,0.126,0.1228,0.1226,0.1219,0.126,0.126,0.1259,0.1259,0.1259,0.085,0.0876,0.0899,0.0929,0.0984,0.1005,0.1097,0.1099,0.1116,0.1091,0.1116,0.1123,0.1093,0.1093,0.1081,0.1082,0.108,0.1079,0,0.0822,0.0837,0.0862,0.0884,0.0899,0.0958,0.0934,0.097,0.101,0.0981,0.1126,0.1156,0.1159,0.1126,0.1123,0.1109,0,0,0,0.08,0.0812,0.0813,0.0842,0.085,0.0859,0.092,0.0897,0.1005,0.0964,0.1034,0.1046,0.1169,0.1265,0.1235,0.1231,0.1219,0,0]},{"header":{"parameterUnit":"m.s-1","parameterCategory":2,"la1":30.2992,"la2":30.254,"lo1":-89.0895,"lo2":-89.0443,"dy":0.0025,"dx":0.0025,"nx":19,"ny":19,"refTime":"2026-04-05T09:00:00:Z","depth":"4","parameterNumber":3,"parameterNumberName":"V-component_of_CURRENTS"},"data":[0,0,0,0.011,0.0111,0.0119,0.0119,0.0133,0.0133,0,0,0,0,0,0,0,0,0,0,0,0.0109,0.0109,0.011,0.0111,0.0119,0.0119,0.0133,0.0133,0,0,0,0,0,0,0,0,0,0,0,0.0109,0.0109,0.0109,0.0111,0.0119,0.0119,0.0133,0.0126,0,0,0,0,0,0,0,0,0,0,0.0117,0.0113,0.0109,0.0109,0.0111,0.0119,0.0119,0.0125,0.0126,0.013,0,0.0133,0,0.0133,0.0134,0.0134,0,0,0,0.011,0.0113,0.0117,0.0109,0.0111,0.0119,0.0115,0.0126,0.0127,0.0131,0.0133,0.0134,0.0133,0.0134,0.0134,0.0172,0.0173,0,0,0.011,0.0108,0.0116,0.0118,0.0115,0.0115,0.0115,0.0126,0.0127,0.0133,0.0134,0.0133,0.0134,0.0134,0.0172,0.0172,0,0,0,0.0109,0.0108,0.0112,0.0117,0.0118,0.0115,0.0116,0.0127,0.0129,0.0134,0.0134,0.0134,0.0135,0.0172,0.0172,0.0208,0,0,0,0.0108,0.0107,0.0112,0.0111,0.0118,0.0121,0.0116,0.0128,0.0129,0.0133,0.0134,0.0135,0.0171,0.0172,0.0206,0.0229,0,0,0,0.0108,0.0107,0.0109,0.0111,0.0114,0.0121,0.0124,0.0128,0.0129,0.0134,0.0135,0.0171,0.0172,0.0205,0.0226,0.0244,0,0,0,0.0105,0.0115,0.0109,0.0124,0.0114,0.0137,0.0124,0.0137,0.0144,0.0134,0.0171,0.0172,0.0204,0.0224,0.0242,0.0228,0,0,0,0.0118,0.0117,0.0127,0.0122,0.0148,0.0135,0.0165,0.0165,0.0157,0.0167,0.0168,0.0207,0.0226,0.0244,0.027,0,0,0,0,0.0131,0.0139,0.0146,0.0159,0.0169,0.0187,0.0184,0.0187,0.02,0.0164,0.0212,0.0222,0.0233,0.0219,0.0176,0.0176,0.0176,0.0175,0.0175,0.0144,0.0155,0.0178,0.0195,0.021,0.0224,0.0241,0.0244,0.0228,0.0241,0.0255,0.0299,0.0287,0.0254,0.0255,0.0255,0.0255,0.0255,0.0255,0.0171,0.0187,0.0205,0.0232,0.0253,0.0278,0.03,0.0296,0.0319,0.0295,0.0303,0.0262,0.0259,0.0258,0.0258,0.0257,0.0257,0.0257,0.0256,0.0181,0.0192,0.021,0.0253,0.0294,0.0318,0.0367,0.037,0.0358,0.0372,0.0348,0.0326,0.0319,0.0371,0.0371,0.0371,0.0371,0.0371,0.0372,0.0183,0.0203,0.0234,0.0279,0.0313,0.0364,0.0409,0.0425,0.0414,0.0395,0.0382,0.0338,0.0334,0.0325,0.0375,0.0374,0.0374,0.0373,0.0373,0.0192,0.0204,0.0248,0.0283,0.0364,0.0403,0.0447,0.0461,0.0473,0.0454,0.0403,0.0401,0.0386,0.0381,0.0374,0.0439,0.0439,0.0439,0,0.0195,0.0206,0.0263,0.0318,0.0385,0.0427,0.0462,0.0477,0.0451,0.0438,0.0456,0.0397,0.0395,0.0377,0.0373,0.0363,0,0,0,0.0202,0.0219,0.0256,0.0315,0.0391,0.0437,0.0472,0.0468,0.0454,0.046,0.0439,0.0439,0.0413,0.0383,0.0356,0.0351,0.0336,0,0]}]]